TimeCDT,TemperatureF,Dew PointF,Humidity,Sea Level PressureIn,VisibilityMPH,Wind Direction,Wind SpeedMPH,Gust SpeedMPH,PrecipitationIn,Events,Conditions,WindDirDegrees,DateUTC
12:15 AM,60.1,55.4,85,29.99,10.0,Calm,Calm,-,N/A,,Mostly Cloudy,0,2014-05-03 05:15:00
12:35 AM,60.1,55.0,83,29.98,10.0,Calm,Calm,-,N/A,,Scattered Clouds,0,2014-05-03 05:35:00
12:55 AM,59.9,55.6,86,29.98,10.0,Calm,Calm,-,N/A,,Scattered Clouds,0,2014-05-03 05:55:00
1:15 AM,59.9,55.6,86,29.98,10.0,NNW,3.5,-,N/A,,Clear,340,2014-05-03 06:15:00
1:35 AM,59.2,55.6,88,29.98,10.0,Calm,Calm,-,N/A,,Scattered Clouds,0,2014-05-03 06:35:00
1:55 AM,58.5,55.9,91,29.98,10.0,NNW,3.5,-,N/A,,Scattered Clouds,330,2014-05-03 06:55:00
2:15 AM,58.1,55.9,93,29.98,10.0,NNW,3.5,-,N/A,,Clear,330,2014-05-03 07:15:00
2:35 AM,58.3,55.8,91,29.99,10.0,NW,4.6,-,N/A,,Scattered Clouds,320,2014-05-03 07:35:00
2:55 AM,59.0,54.9,86,29.99,10.0,Calm,Calm,-,N/A,,Mostly Cloudy,0,2014-05-03 07:55:00
3:15 AM,58.8,54.7,86,29.99,10.0,NNW,3.5,-,N/A,,Mostly Cloudy,330,2014-05-03 08:15:00
3:35 AM,59.4,53.6,81,30.01,10.0,NW,3.5,-,N/A,,Overcast,320,2014-05-03 08:35:00
3:55 AM,59.0,53.6,82,30.00,10.0,NNW,4.6,-,N/A,,Mostly Cloudy,330,2014-05-03 08:55:00
4:15 AM,59.4,52.0,77,29.99,10.0,NNW,5.8,-,N/A,,Mostly Cloudy,340,2014-05-03 09:15:00
4:35 AM,59.0,51.3,75,29.99,10.0,NNW,4.6,-,N/A,,Mostly Cloudy,340,2014-05-03 09:35:00
4:55 AM,59.2,50.5,73,29.99,10.0,NNW,5.8,-,N/A,,Mostly Cloudy,340,2014-05-03 09:55:00
5:15 AM,58.8,50.2,73,29.99,10.0,NNW,4.6,-,N/A,,Mostly Cloudy,340,2014-05-03 10:15:00
5:35 AM,58.1,49.8,74,30.00,10.0,North,4.6,-,N/A,,Scattered Clouds,350,2014-05-03 10:35:00
5:55 AM,57.4,49.6,75,30.00,10.0,North,3.5,-,N/A,,Clear,350,2014-05-03 10:55:00
6:15 AM,56.7,49.1,76,30.01,10.0,North,3.5,-,N/A,,Clear,360,2014-05-03 11:15:00
6:35 AM,55.8,49.6,80,30.02,10.0,North,4.6,-,N/A,,Clear,360,2014-05-03 11:35:00
6:55 AM,56.7,50.0,78,30.03,10.0,Calm,Calm,-,N/A,,Clear,0,2014-05-03 11:55:00
7:15 AM,57.9,49.3,73,30.03,10.0,North,5.8,-,N/A,,Clear,350,2014-05-03 12:15:00
7:35 AM,59.7,48.7,67,30.04,10.0,North,5.8,-,N/A,,Clear,350,2014-05-03 12:35:00
7:55 AM,61.9,47.7,60,30.05,10.0,North,5.8,-,N/A,,Clear,360,2014-05-03 12:55:00
8:15 AM,63.7,47.5,56,30.05,10.0,NNE,4.6,-,N/A,,Clear,20,2014-05-03 13:15:00
8:35 AM,64.6,47.3,53,30.06,10.0,North,5.8,-,N/A,,Clear,360,2014-05-03 13:35:00
8:55 AM,65.8,46.6,50,30.07,10.0,NNE,5.8,-,N/A,,Clear,20,2014-05-03 13:55:00
9:15 AM,67.1,47.3,49,30.07,10.0,NNE,5.8,-,N/A,,Clear,20,2014-05-03 14:15:00
9:35 AM,68.0,45.1,44,30.08,10.0,NNE,4.6,-,N/A,,Clear,20,2014-05-03 14:35:00
9:50 AM,68.9,45.7,43,30.08,10.0,North,8.1,-,N/A,,Clear,360,2014-05-03 14:50:00
10:15 AM,69.6,44.6,41,30.08,10.0,North,6.9,-,N/A,,Clear,350,2014-05-03 15:15:00
10:35 AM,71.1,45.5,40,30.08,10.0,North,10.4,-,N/A,,Clear,10,2014-05-03 15:35:00
11:15 AM,72.1,42.8,35,30.08,10.0,North,10.4,16.1,N/A,,Clear,10,2014-05-03 16:15:00
11:35 AM,72.5,44.1,36,30.08,10.0,NW,10.4,16.1,N/A,,Clear,320,2014-05-03 16:35:00
11:55 AM,73.4,44.4,35,30.08,10.0,NNE,13.8,-,N/A,,Scattered Clouds,20,2014-05-03 16:55:00
12:15 PM,73.4,42.6,33,30.07,10.0,North,9.2,17.3,N/A,,Scattered Clouds,360,2014-05-03 17:15:00
12:35 PM,74.3,43.2,33,30.07,10.0,NW,11.5,17.3,N/A,,Scattered Clouds,320,2014-05-03 17:35:00
12:55 PM,74.7,43.5,33,30.06,10.0,NNE,4.6,9.2,N/A,,Scattered Clouds,20,2014-05-03 17:55:00
1:15 PM,73.6,43.2,34,30.06,10.0,NNW,10.4,-,N/A,,Scattered Clouds,340,2014-05-03 18:15:00
1:35 PM,75.4,43.2,32,30.06,10.0,North,11.5,19.6,N/A,,Scattered Clouds,350,2014-05-03 18:35:00
1:55 PM,75.2,43.3,32,30.05,10.0,North,11.5,16.1,N/A,,Scattered Clouds,360,2014-05-03 18:55:00
2:15 PM,75.6,42.4,31,30.05,10.0,North,5.8,17.3,N/A,,Scattered Clouds,360,2014-05-03 19:15:00
2:35 PM,75.0,42.3,31,30.04,10.0,North,9.2,-,N/A,,Clear,360,2014-05-03 19:35:00
2:55 PM,76.6,42.3,29,30.03,10.0,NW,13.8,-,N/A,,Clear,320,2014-05-03 19:55:00
3:15 PM,76.3,42.3,30,30.02,10.0,North,9.2,-,N/A,,Clear,350,2014-05-03 20:15:00
3:35 PM,76.8,42.1,29,30.02,10.0,North,11.5,16.1,N/A,,Clear,10,2014-05-03 20:35:00
3:55 PM,76.5,42.1,29,30.02,10.0,North,6.9,18.4,N/A,,Clear,360,2014-05-03 20:55:00
4:15 PM,77.2,43.5,30,30.01,10.0,WNW,5.8,-,N/A,,Clear,300,2014-05-03 21:15:00
4:35 PM,77.7,43.3,29,30.01,10.0,North,9.2,-,N/A,,Clear,350,2014-05-03 21:35:00
4:55 PM,77.0,42.6,29,30.02,10.0,NW,6.9,16.1,N/A,,Clear,310,2014-05-03 21:55:00
5:15 PM,77.0,42.8,29,30.02,10.0,NNW,10.4,-,N/A,,Clear,330,2014-05-03 22:15:00
5:35 PM,77.0,43.2,30,30.02,10.0,NNW,6.9,-,N/A,,Clear,340,2014-05-03 22:35:00
5:55 PM,76.6,43.2,30,30.02,10.0,North,10.4,-,N/A,,Clear,350,2014-05-03 22:55:00
6:15 PM,76.1,44.1,32,30.02,10.0,NNW,4.6,-,N/A,,Clear,330,2014-05-03 23:15:00
6:35 PM,75.2,44.4,33,30.03,10.0,NW,3.5,-,N/A,,Clear,320,2014-05-03 23:35:00
6:55 PM,73.6,45.7,37,30.03,10.0,NW,4.6,-,N/A,,Clear,320,2014-05-03 23:55:00
7:15 PM,71.8,46.0,40,30.05,10.0,Calm,Calm,-,N/A,,Clear,0,2014-05-04 00:15:00
7:35 PM,68.4,48.0,48,30.05,10.0,Calm,Calm,-,N/A,,Clear,0,2014-05-04 00:35:00
7:55 PM,68.2,50.5,53,30.05,10.0,Calm,Calm,-,N/A,,Clear,0,2014-05-04 00:55:00
8:15 PM,61.9,53.1,73,30.06,10.0,South,3.5,-,N/A,,Clear,170,2014-05-04 01:15:00
8:35 PM,63.0,52.9,70,30.07,10.0,South,3.5,-,N/A,,Clear,180,2014-05-04 01:35:00
8:55 PM,61.2,54.3,78,30.07,10.0,Calm,Calm,-,N/A,,Clear,0,2014-05-04 01:55:00
9:15 PM,61.2,55.0,80,30.08,10.0,Calm,Calm,-,N/A,,Clear,0,2014-05-04 02:15:00
9:35 PM,60.6,55.4,83,30.08,10.0,Calm,Calm,-,N/A,,Clear,0,2014-05-04 02:35:00
9:55 PM,58.3,55.4,90,30.09,10.0,Calm,Calm,-,N/A,,Clear,0,2014-05-04 02:55:00
10:15 PM,59.4,56.8,91,30.09,10.0,Calm,Calm,-,N/A,,Clear,0,2014-05-04 03:15:00
10:35 PM,57.9,56.3,94,30.10,10.0,Calm,Calm,-,N/A,,Clear,0,2014-05-04 03:35:00
10:55 PM,58.3,56.5,94,30.10,10.0,Calm,Calm,-,N/A,,Clear,0,2014-05-04 03:55:00
11:15 PM,58.1,57.0,96,30.10,10.0,Calm,Calm,-,N/A,,Clear,0,2014-05-04 04:15:00
11:35 PM,58.1,56.8,96,30.10,10.0,WSW,3.5,-,N/A,,Clear,250,2014-05-04 04:35:00
11:55 PM,59.5,55.8,87,30.10,10.0,WSW,5.8,-,N/A,,Clear,240,2014-05-04 04:55:00